Terminal Aerodrome Forecast
Issued by NWS Wilmington, OH

Home | Current Version | Previous Version | Text Only | Print | Product List | Glossary On
Versions: 1 2 3 4 5 6 7 8 9 10 11 12 13 14 15
000
FTUS41 KILN 231720
TAFILN
TAF
KILN 231720Z 2318/2418 18012KT P6SM -SHRA OVC025
      TEMPO 2318/2319 4SM SHRA BKN025
     FM232000 18012G18KT P6SM VCSH OVC035
     FM232300 25012KT P6SM VCSH OVC015
     FM240600 21010KT P6SM VCSH BKN025
     FM241200 23012KT P6SM BKN025
     FM241600 25012G20KT P6SM FEW030 BKN040=

USA.gov is the U.S. government's official web portal to all federal, state and local government web resources and services.